,,Stat6,,Stat2,,Stat8,,Stat9,,Stat10,,Wind1,,Wind1,
time,status,PA1M_AVG,status,PR1M_SUM,status,RH1M_AVG,status,SR1M_AVG,status,TA1M_AVG,status,W1dAve1m,status,W1sAve1m,
2006-01-22, 00:00:01,VALID,917.848,VALID,0,VALID,100,VALID,0.20377,VALID,19.3361,VALID,345,VALID,0.328316,
2006-01-22, 00:01:01,VALID,917.848,VALID,0,VALID,100,VALID,0.186789,VALID,19.3368,VALID,345,VALID,0.222479,
2006-01-22, 00:02:01,VALID,917.849,VALID,0,VALID,100,VALID,0.186789,VALID,19.3204,VALID,340,VALID,0.433321,
2006-01-22, 00:03:01,VALID,917.835,VALID,0,VALID,100,VALID,0.152827,VALID,19.295,VALID,312,VALID,0.647195,
2006-01-22, 00:04:01,VALID,917.83,VALID,0,VALID,100,VALID,0.186789,VALID,19.2622,VALID,307,VALID,0.295508,
2006-01-22, 00:05:01,VALID,917.828,VALID,0,VALID,100,VALID,0.186789,VALID,19.2722,VALID,307,VALID,0.161086,
2006-01-22, 00:06:01,VALID,917.823,VALID,0,VALID,100,VALID,0.118866,VALID,19.2701,VALID,307,VALID,0.204578,
2006-01-22, 00:07:01,VALID,917.813,VALID,0,VALID,100,VALID,0.152827,VALID,19.2965,VALID,307,VALID,0.0537348,
2006-01-22, 00:08:01,VALID,917.806,VALID,0,VALID,100,VALID,0.135847,VALID,19.2928,VALID,307,VALID,0,
2006-01-22, 00:09:01,VALID,917.802,VALID,0,VALID,100,VALID,0.0679233,VALID,19.3194,VALID,307,VALID,0,
2006-01-22, 00:10:01,VALID,917.782,VALID,0,VALID,100,VALID,0.101885,VALID,19.3679,VALID,341,VALID,0.336868,
2006-01-22, 00:11:01,VALID,917.769,VALID,0,VALID,100,VALID,0.0849042,VALID,19.387,VALID,18,VALID,0.676809,
2006-01-22, 00:12:01,VALID,917.772,VALID,0,VALID,100,VALID,0.118866,VALID,19.4134,VALID,18,VALID,0.753089,
2006-01-22, 00:13:01,VALID,917.789,VALID,0,VALID,100,VALID,0.0509425,VALID,19.4355,VALID,21,VALID,0.890803,
2006-01-22, 00:14:01,VALID,917.79,VALID,0,VALID,100,VALID,0.0849042,VALID,19.4383,VALID,19,VALID,1.03316,
2006-01-22, 00:15:01,VALID,917.813,VALID,0,VALID,100,VALID,0.0849042,VALID,19.4159,VALID,14,VALID,1.06286,
2006-01-22, 00:16:01,VALID,917.848,VALID,0,VALID,100,VALID,0.101885,VALID,19.3808,VALID,331,VALID,1.11966,
2006-01-22, 00:17:01,VALID,917.879,VALID,0,VALID,100,VALID,0.118866,VALID,19.3385,VALID,317,VALID,0.373512,
2006-01-22, 00:18:01,VALID,917.889,VALID,0,VALID,100,VALID,0.0849042,VALID,19.3027,VALID,315,VALID,0.0533854,
2006-01-22, 00:19:01,VALID,917.886,VALID,0,VALID,100,VALID,0.0849042,VALID,19.2801,VALID,323,VALID,0.119056,
2006-01-22, 00:20:01,VALID,917.899,VALID,0,VALID,100,VALID,0.118866,VALID,19.2831,VALID,24,VALID,0.805618,
2006-01-22, 00:21:01,VALID,917.883,VALID,0,VALID,100,VALID,0.135847,VALID,19.2958,VALID,1,VALID,0.659647,
2006-01-22, 00:22:01,VALID,917.87,VALID,0,VALID,100,VALID,0.118866,VALID,19.2734,VALID,8,VALID,0.988839,
2006-01-22, 00:23:01,VALID,917.852,VALID,0,VALID,100,VALID,0.101885,VALID,19.257,VALID,10,VALID,0.789418,
2006-01-22, 00:24:01,VALID,917.82,VALID,0,VALID,100,VALID,0.118866,VALID,19.2669,VALID,16,VALID,0.748935,
2006-01-22, 00:25:01,VALID,917.798,VALID,0,VALID,100,VALID,0.101885,VALID,19.2575,VALID,1,VALID,0.697027,
2006-01-22, 00:26:00,VALID,917.762,VALID,0,VALID,100,VALID,0.101885,VALID,19.2475,VALID,10,VALID,0.763393,
2006-01-22, 00:27:00,VALID,917.751,VALID,0,VALID,100,VALID,0.118866,VALID,19.2512,VALID,352,VALID,0.862233,
2006-01-22, 00:28:00,VALID,917.738,VALID,0,VALID,100,VALID,0.118866,VALID,19.2254,VALID,12,VALID,0.857376,
2006-01-22, 00:29:00,VALID,917.718,VALID,0,VALID,100,VALID,0.0849042,VALID,19.1988,VALID,353,VALID,0.783296,
2006-01-22, 00:30:00,VALID,917.713,VALID,0,VALID,100,VALID,0.118866,VALID,19.2055,VALID,349,VALID,0.946181,
2006-01-22, 00:31:00,VALID,917.707,VALID,0,VALID,100,VALID,0.152827,VALID,19.2057,VALID,352,VALID,0.908612,
2006-01-22, 00:32:00,VALID,917.693,VALID,0,VALID,100,VALID,0.0679233,VALID,19.2159,VALID,344,VALID,0.592076,
2006-01-22, 00:33:00,VALID,917.663,VALID,0,VALID,100,VALID,0.0849042,VALID,19.2196,VALID,344,VALID,0.71005,
2006-01-22, 00:34:00,VALID,917.645,VALID,0,VALID,100,VALID,0.0849042,VALID,19.2025,VALID,339,VALID,0.792614,
2006-01-22, 00:35:00,VALID,917.616,VALID,0,VALID,100,VALID,0.101885,VALID,19.1965,VALID,359,VALID,0.55434,
2006-01-22, 00:36:00,VALID,917.599,VALID,0,VALID,100,VALID,0.0849042,VALID,19.209,VALID,357,VALID,0.457317,
2006-01-22, 00:37:00,VALID,917.592,VALID,0,VALID,100,VALID,0.0509425,VALID,19.2323,VALID,355,VALID,0.387718,
2006-01-22, 00:38:00,VALID,917.578,VALID,0,VALID,100,VALID,0.0339617,VALID,19.2164,VALID,333,VALID,0.484549,
2006-01-22, 00:39:00,VALID,917.565,VALID,0,VALID,100,VALID,0.0339617,VALID,19.2002,VALID,323,VALID,0.196646,
2006-01-22, 00:40:00,VALID,917.557,VALID,0,VALID,100,VALID,0.0169808,VALID,19.197,VALID,330,VALID,0.264323,
2006-01-22, 00:41:00,VALID,917.542,VALID,0,VALID,100,VALID,0.0679233,VALID,19.2229,VALID,319,VALID,0.429501,
2006-01-22, 00:42:00,VALID,917.533,VALID,0,VALID,100,VALID,0.0679233,VALID,19.2027,VALID,321,VALID,0.431597,
2006-01-22, 00:43:00,VALID,917.519,VALID,0,VALID,100,VALID,0.0679233,VALID,19.206,VALID,339,VALID,0.365734,
2006-01-22, 00:44:00,VALID,917.495,VALID,0,VALID,100,VALID,0.0849042,VALID,19.241,VALID,7,VALID,0.696766,
2006-01-22, 00:45:00,VALID,917.47,VALID,0,VALID,100,VALID,0.0509425,VALID,19.2607,VALID,3,VALID,0.994496,
2006-01-22, 00:46:00,VALID,917.461,VALID,0,VALID,100,VALID,0.118866,VALID,19.2413,VALID,335,VALID,1.30723,
2006-01-22, 00:47:00,VALID,917.439,VALID,0,VALID,100,VALID,0.0339617,VALID,19.2122,VALID,317,VALID,0.659896,
2006-01-22, 00:48:00,VALID,917.422,VALID,0,VALID,100,VALID,0.0679233,VALID,19.2254,VALID,355,VALID,1.01414,
2006-01-22, 00:49:00,VALID,917.429,VALID,0,VALID,100,VALID,0.0509425,VALID,19.2478,VALID,27,VALID,0.217014,
2006-01-22, 00:50:00,VALID,917.418,VALID,0,VALID,100,VALID,0.0679233,VALID,19.2607,VALID,26,VALID,0.1008,
2006-01-22, 00:51:00,VALID,917.415,VALID,0,VALID,100,VALID,0.186789,VALID,19.2592,VALID,26,VALID,0,
2006-01-22, 00:52:00,VALID,917.392,VALID,0,VALID,100,VALID,0.169808,VALID,19.2719,VALID,26,VALID,0,
2006-01-22, 00:53:00,VALID,917.398,VALID,0,VALID,100,VALID,0.169808,VALID,19.3207,VALID,26,VALID,0,
2006-01-22, 00:54:00,VALID,917.404,VALID,0,VALID,100,VALID,0.220751,VALID,19.3401,VALID,27,VALID,0.445694,
2006-01-22, 00:55:00,VALID,917.404,VALID,0,VALID,100,VALID,0.237732,VALID,19.3463,VALID,26,VALID,0.248183,
2006-01-22, 00:56:00,VALID,917.407,VALID,0,VALID,100,VALID,0.152827,VALID,19.3699,VALID,26,VALID,0.0768532,
2006-01-22, 00:57:00,VALID,917.415,VALID,0,VALID,100,VALID,0.169808,VALID,19.3751,VALID,26,VALID,0.655078,
2006-01-22, 00:58:00,VALID,917.418,VALID,0,VALID,100,VALID,0.20377,VALID,19.3913,VALID,23,VALID,0.500744,
2006-01-22, 00:59:00,VALID,917.406,VALID,0,VALID,100,VALID,0.152827,VALID,19.4211,VALID,22,VALID,0.436547,
2006-01-22, 01:00:00,VALID,917.388,VALID,0,VALID,100,VALID,0.186789,VALID,19.4435,VALID,22,VALID,0.0697266,
2006-01-22, 01:01:00,VALID,917.383,VALID,0,VALID,100,VALID,0.20377,VALID,19.4532,VALID,20,VALID,0.745458,
2006-01-22, 01:02:00,VALID,917.376,VALID,0,VALID,100,VALID,0.186789,VALID,19.4301,VALID,11,VALID,0.89897,
2006-01-22, 01:03:00,VALID,917.356,VALID,0,VALID,100,VALID,0.20377,VALID,19.3398,VALID,330,VALID,1.30264,
2006-01-22, 01:04:00,VALID,917.351,VALID,0,VALID,100,VALID,0.186789,VALID,19.3209,VALID,12,VALID,0.517721,
2006-01-22, 01:05:00,VALID,917.36,VALID,0,VALID,100,VALID,0.20377,VALID,19.343,VALID,20,VALID,0.452567,
2006-01-22, 01:06:00,VALID,917.341,VALID,0,VALID,100,VALID,0.118866,VALID,19.3239,VALID,321,VALID,0.736235,
2006-01-22, 01:07:00,VALID,917.337,VALID,0,VALID,100,VALID,0.152827,VALID,19.3072,VALID,14,VALID,0.705412,
2006-01-22, 01:08:00,VALID,917.321,VALID,0,VALID,100,VALID,0.101885,VALID,19.3149,VALID,236,VALID,0.186098,
2006-01-22, 01:09:00,VALID,917.315,VALID,0,VALID,100,VALID,0.135847,VALID,19.3017,VALID,332,VALID,0.38299,
2006-01-22, 01:10:00,VALID,917.298,VALID,0,VALID,100,VALID,0.135847,VALID,19.3408,VALID,26,VALID,0.579368,
2006-01-22, 01:11:00,VALID,917.293,VALID,0.2,VALID,100,VALID,0.0849042,VALID,19.3532,VALID,7,VALID,0.588224,
2006-01-22, 01:12:00,VALID,917.297,VALID,0,VALID,100,VALID,0.135847,VALID,19.3689,VALID,347,VALID,0.202398,
2006-01-22, 01:13:00,VALID,917.306,VALID,0,VALID,100,VALID,0.0849042,VALID,19.3667,VALID,301,VALID,0.433036,
2006-01-22, 01:14:00,VALID,917.312,VALID,0,VALID,100,VALID,0.118866,VALID,19.308,VALID,15,VALID,0.52123,
2006-01-22, 01:15:00,VALID,917.311,VALID,0,VALID,100,VALID,0.101885,VALID,19.301,VALID,15,VALID,0.172433,
2006-01-22, 01:16:00,VALID,917.317,VALID,0,VALID,100,VALID,0.152827,VALID,19.3376,VALID,18,VALID,0.487571,
2006-01-22, 01:17:00,VALID,917.328,VALID,0.2,VALID,100,VALID,0.101885,VALID,19.3405,VALID,19,VALID,0.464939,
2006-01-22, 01:18:00,VALID,917.333,VALID,0,VALID,100,VALID,0.101885,VALID,19.3634,VALID,19,VALID,0.0464844,
2006-01-22, 01:19:00,VALID,917.322,VALID,0,VALID,100,VALID,0.118866,VALID,19.3371,VALID,19,VALID,0.0327744,
2006-01-22, 01:20:00,VALID,917.324,VALID,0,VALID,100,VALID,0.118866,VALID,19.3343,VALID,14,VALID,0.781424,
2006-01-22, 01:21:00,VALID,917.308,VALID,0,VALID,100,VALID,0.152827,VALID,19.3433,VALID,7,VALID,0.062872,
2006-01-22, 01:22:00,VALID,917.287,VALID,0,VALID,100,VALID,0.135847,VALID,19.3338,VALID,7,VALID,0.110777,
2006-01-22, 01:23:00,VALID,917.267,VALID,0,VALID,100,VALID,0.0849042,VALID,19.3274,VALID,7,VALID,0.0443979,
2006-01-22, 01:24:00,VALID,917.24,VALID,0,VALID,100,VALID,0.101885,VALID,19.3077,VALID,7,VALID,0.152876,
2006-01-22, 01:25:00,VALID,917.24,VALID,0,VALID,100,VALID,0.152827,VALID,19.3045,VALID,7,VALID,0.128997,
2006-01-22, 01:26:00,VALID,917.235,VALID,0,VALID,100,VALID,0.118866,VALID,19.298,VALID,7,VALID,0.374455,
2006-01-22, 01:27:00,VALID,917.225,VALID,0,VALID,100,VALID,0.152827,VALID,19.2983,VALID,7,VALID,0.503711,
2006-01-22, 01:28:00,VALID,917.21,VALID,0,VALID,100,VALID,0.101885,VALID,19.3174,VALID,10,VALID,0.520089,
2006-01-22, 01:29:00,VALID,917.215,VALID,0.2,VALID,100,VALID,0.152827,VALID,19.3174,VALID,15,VALID,0.6633,
2006-01-22, 01:30:00,VALID,917.213,VALID,0,VALID,100,VALID,0.118866,VALID,19.3405,VALID,8,VALID,0.505814,
2006-01-22, 01:31:00,VALID,917.212,VALID,0,VALID,100,VALID,0.152827,VALID,19.3567,VALID,357,VALID,0.497954,
2006-01-22, 01:32:00,VALID,917.207,VALID,0,VALID,100,VALID,0.118866,VALID,19.3557,VALID,10,VALID,0.842115,
2006-01-22, 01:33:00,VALID,917.209,VALID,0,VALID,100,VALID,0.135847,VALID,19.3142,VALID,15,VALID,1.03106,
2006-01-22, 01:34:00,VALID,917.189,VALID,0,VALID,100,VALID,0.152827,VALID,19.2851,VALID,1,VALID,0.894531,
2006-01-22, 01:35:00,VALID,917.184,VALID,0,VALID,100,VALID,0.152827,VALID,19.2659,VALID,12,VALID,0.924107,
2006-01-22, 01:36:00,VALID,917.175,VALID,0,VALID,100,VALID,0.118866,VALID,19.259,VALID,11,VALID,0.727805,
2006-01-22, 01:37:00,VALID,917.17,VALID,0,VALID,100,VALID,0.101885,VALID,19.2461,VALID,352,VALID,0.816939,
2006-01-22, 01:38:00,VALID,917.165,VALID,0,VALID,100,VALID,0.101885,VALID,19.1784,VALID,355,VALID,1.1901,
2006-01-22, 01:39:00,VALID,917.159,VALID,0,VALID,100,VALID,0.152827,VALID,19.1391,VALID,4,VALID,0.557106,
2006-01-22, 01:40:00,VALID,917.137,VALID,0,VALID,100,VALID,0.135847,VALID,19.1491,VALID,9,VALID,0.565952,
2006-01-22, 01:41:00,VALID,917.123,VALID,0,VALID,100,VALID,0.152827,VALID,19.1401,VALID,16,VALID,0.749467,
2006-01-22, 01:42:00,VALID,917.121,VALID,0,VALID,100,VALID,0.135847,VALID,19.1371,VALID,10,VALID,1.15086,
2006-01-22, 01:43:00,VALID,917.117,VALID,0,VALID,100,VALID,0.135847,VALID,19.1036,VALID,19,VALID,0.974927,
2006-01-22, 01:44:00,VALID,917.108,VALID,0,VALID,100,VALID,0.101885,VALID,19.1237,VALID,24,VALID,0.81392,
2006-01-22, 01:45:00,VALID,917.106,VALID,0,VALID,100,VALID,0.118866,VALID,19.1593,VALID,23,VALID,0.366425,
2006-01-22, 01:46:00,VALID,917.106,VALID,0,VALID,100,VALID,0.118866,VALID,19.1719,VALID,23,VALID,0.139535,
2006-01-22, 01:47:00,VALID,917.105,VALID,0,VALID,100,VALID,0.101885,VALID,19.1916,VALID,23,VALID,0.222826,
2006-01-22, 01:48:00,VALID,917.103,VALID,0,VALID,100,VALID,0.101885,VALID,19.2075,VALID,23,VALID,0.107986,
2006-01-22, 01:49:00,VALID,917.113,VALID,0,VALID,100,VALID,0.0679233,VALID,19.2336,VALID,22,VALID,0.312891,
2006-01-22, 01:50:00,VALID,917.1,VALID,0,VALID,100,VALID,0.101885,VALID,19.2533,VALID,22,VALID,0.471912,
2006-01-22, 01:51:00,VALID,917.091,VALID,0,VALID,100,VALID,0.118866,VALID,19.2339,VALID,22,VALID,0.344512,
2006-01-22, 01:52:00,VALID,917.085,VALID,0,VALID,100,VALID,0.135847,VALID,19.2301,VALID,22,VALID,0.525856,
2006-01-22, 01:53:00,VALID,917.09,VALID,0,VALID,100,VALID,0.152827,VALID,19.2043,VALID,22,VALID,0.549237,
2006-01-22, 01:54:00,VALID,917.105,VALID,0,VALID,100,VALID,0.0849042,VALID,19.2043,VALID,22,VALID,0.776101,
2006-01-22, 01:55:00,VALID,917.087,VALID,0,VALID,100,VALID,0.135847,VALID,19.1918,VALID,22,VALID,0.523983,
2006-01-22, 01:56:00,VALID,917.099,VALID,0,VALID,100,VALID,0.101885,VALID,19.2207,VALID,22,VALID,0.420759,
2006-01-22, 01:57:00,VALID,917.103,VALID,0,VALID,100,VALID,0.101885,VALID,19.253,VALID,22,VALID,0.158558,
2006-01-22, 01:58:00,VALID,917.098,VALID,0,VALID,100,VALID,0.101885,VALID,19.2724,VALID,22,VALID,0,
2006-01-22, 01:59:00,VALID,917.093,VALID,0,VALID,100,VALID,0.135847,VALID,19.2886,VALID,22,VALID,0.0755208,
2006-01-22, 02:00:00,VALID,917.093,VALID,0,VALID,100,VALID,0.101885,VALID,19.2861,VALID,22,VALID,0.0120908,
2006-01-22, 02:01:00,VALID,917.095,VALID,0,VALID,100,VALID,0.152827,VALID,19.2495,VALID,22,VALID,0,
2006-01-22, 02:02:00,VALID,917.096,VALID,0,VALID,100,VALID,0.118866,VALID,19.2495,VALID,22,VALID,0.00538194,
2006-01-22, 02:03:00,VALID,917.102,VALID,0,VALID,100,VALID,0.118866,VALID,19.2331,VALID,22,VALID,0.0012718,
2006-01-22, 02:04:00,VALID,917.114,VALID,0,VALID,100,VALID,0.135847,VALID,19.2334,VALID,16,VALID,0.210938,
2006-01-22, 02:05:00,VALID,917.114,VALID,0,VALID,100,VALID,0.118866,VALID,19.1983,VALID,11,VALID,0.21684,
2006-01-22, 02:06:00,VALID,917.111,VALID,0,VALID,100,VALID,0.169808,VALID,19.1757,VALID,11,VALID,0.0335115,
2006-01-22, 02:07:00,VALID,917.102,VALID,0,VALID,100,VALID,0.135847,VALID,19.1955,VALID,12,VALID,0.400534,
2006-01-22, 02:08:00,VALID,917.09,VALID,0,VALID,100,VALID,0.135847,VALID,19.1851,VALID,22,VALID,0.672965,
2006-01-22, 02:09:00,VALID,917.062,VALID,0,VALID,100,VALID,0.152827,VALID,19.1622,VALID,39,VALID,0.59747,
2006-01-22, 02:10:00,VALID,917.053,VALID,0,VALID,100,VALID,0.135847,VALID,19.1458,VALID,35,VALID,0.536111,
2006-01-22, 02:11:00,VALID,917.041,VALID,0,VALID,100,VALID,0.152827,VALID,19.1468,VALID,33,VALID,0.263765,
2006-01-22, 02:12:00,VALID,917.038,VALID,0,VALID,100,VALID,0.152827,VALID,19.1625,VALID,33,VALID,0,
2006-01-22, 02:13:00,VALID,917.006,VALID,0,VALID,100,VALID,0.101885,VALID,19.1921,VALID,33,VALID,0,
2006-01-22, 02:14:00,VALID,916.983,VALID,0,VALID,100,VALID,0.152827,VALID,19.1988,VALID,33,VALID,0,
2006-01-22, 02:15:00,VALID,916.968,VALID,0,VALID,100,VALID,0.135847,VALID,19.1821,VALID,33,VALID,0,
2006-01-22, 02:16:00,VALID,916.952,VALID,0,VALID,100,VALID,0.118866,VALID,19.156,VALID,33,VALID,0,
2006-01-22, 02:17:00,VALID,916.943,VALID,0,VALID,100,VALID,0.152827,VALID,19.1369,VALID,33,VALID,0,
2006-01-22, 02:18:00,VALID,916.935,VALID,0,VALID,100,VALID,0.135847,VALID,19.1175,VALID,33,VALID,0,
2006-01-22, 02:19:00,VALID,916.911,VALID,0,VALID,100,VALID,0.169808,VALID,19.108,VALID,33,VALID,0,
2006-01-22, 02:20:00,VALID,916.903,VALID,0,VALID,100,VALID,0.0679233,VALID,19.0978,VALID,33,VALID,0,
2006-01-22, 02:21:00,VALID,916.9,VALID,0,VALID,100,VALID,0.101885,VALID,19.0715,VALID,33,VALID,0,
2006-01-22, 02:22:00,VALID,916.914,VALID,0,VALID,100,VALID,0.135847,VALID,19.0879,VALID,33,VALID,0.0480183,
2006-01-22, 02:23:00,VALID,916.903,VALID,0,VALID,100,VALID,0.0849042,VALID,19.1108,VALID,26,VALID,0.327567,
2006-01-22, 02:24:00,VALID,916.908,VALID,0,VALID,100,VALID,0.186789,VALID,19.1011,VALID,16,VALID,0.350521,
2006-01-22, 02:25:00,VALID,916.903,VALID,0,VALID,100,VALID,0.118866,VALID,19.1073,VALID,16,VALID,0.187911,
2006-01-22, 02:26:00,VALID,916.894,VALID,0,VALID,100,VALID,0.135847,VALID,19.1011,VALID,15,VALID,0.0261628,
2006-01-22, 02:27:00,VALID,916.85,VALID,0,VALID,100,VALID,0.135847,VALID,19.1493,VALID,17,VALID,0.480283,
2006-01-22, 02:28:00,VALID,916.814,VALID,0,VALID,100,VALID,0.135847,VALID,19.1622,VALID,21,VALID,0.32867,
2006-01-22, 02:29:00,VALID,916.781,VALID,0,VALID,100,VALID,0.135847,VALID,19.1364,VALID,21,VALID,0.0413707,
2006-01-22, 02:30:00,VALID,916.745,VALID,0,VALID,100,VALID,0.135847,VALID,19.1523,VALID,21,VALID,0.230283,
2006-01-22, 02:31:00,VALID,916.723,VALID,0,VALID,100,VALID,0.135847,VALID,19.1491,VALID,21,VALID,0.114329,
2006-01-22, 02:32:00,VALID,916.685,VALID,0,VALID,100,VALID,0.101885,VALID,19.162,VALID,21,VALID,0.0564631,
2006-01-22, 02:33:00,VALID,916.669,VALID,0,VALID,100,VALID,0.135847,VALID,19.1749,VALID,21,VALID,0,
2006-01-22, 02:34:00,VALID,916.652,VALID,0,VALID,100,VALID,0.118866,VALID,19.1946,VALID,21,VALID,0,
2006-01-22, 02:35:00,VALID,916.642,VALID,0,VALID,100,VALID,0.135847,VALID,19.1657,VALID,21,VALID,0.00571646,
2006-01-22, 02:36:00,VALID,916.63,VALID,0,VALID,100,VALID,0.152827,VALID,19.1299,VALID,21,VALID,0,
2006-01-22, 02:37:00,VALID,916.606,VALID,0,VALID,100,VALID,0.135847,VALID,19.1272,VALID,21,VALID,0,
2006-01-22, 02:38:00,VALID,916.59,VALID,0,VALID,100,VALID,0.118866,VALID,19.1138,VALID,21,VALID,0,
2006-01-22, 02:39:00,VALID,916.57,VALID,0,VALID,100,VALID,0.118866,VALID,19.1306,VALID,21,VALID,0.258003,
2006-01-22, 02:40:00,VALID,916.569,VALID,0,VALID,100,VALID,0.101885,VALID,19.156,VALID,21,VALID,0.0501736,
2006-01-22, 02:41:00,VALID,916.575,VALID,0,VALID,100,VALID,0.152827,VALID,19.1851,VALID,21,VALID,0.104581,
2006-01-22, 02:42:00,VALID,916.582,VALID,0,VALID,100,VALID,0.118866,VALID,19.1849,VALID,21,VALID,0,
2006-01-22, 02:43:00,VALID,916.566,VALID,0,VALID,100,VALID,0.152827,VALID,19.2043,VALID,21,VALID,0,
2006-01-22, 02:44:00,VALID,916.548,VALID,0,VALID,100,VALID,0.152827,VALID,19.1884,VALID,21,VALID,0,
2006-01-22, 02:45:00,VALID,916.526,VALID,0,VALID,100,VALID,0.101885,VALID,19.1724,VALID,21,VALID,0,
2006-01-22, 02:46:00,VALID,916.498,VALID,0,VALID,100,VALID,0.135847,VALID,19.1884,VALID,21,VALID,0,
2006-01-22, 02:47:00,VALID,916.483,VALID,0,VALID,100,VALID,0.152827,VALID,19.201,VALID,21,VALID,0,
2006-01-22, 02:48:00,VALID,916.471,VALID,0,VALID,100,VALID,0.135847,VALID,19.2179,VALID,21,VALID,0.194754,
2006-01-22, 02:49:00,VALID,916.452,VALID,0,VALID,100,VALID,0.118866,VALID,19.2204,VALID,17,VALID,0.318132,
2006-01-22, 02:50:00,VALID,916.431,VALID,0,VALID,100,VALID,0.101885,VALID,19.2274,VALID,15,VALID,0.53924,
2006-01-22, 02:51:00,VALID,916.416,VALID,0,VALID,100,VALID,0.135847,VALID,19.2433,VALID,15,VALID,0.538889,
2006-01-22, 02:52:00,VALID,916.418,VALID,0,VALID,100,VALID,0.118866,VALID,19.2503,VALID,15,VALID,0.693677,
2006-01-22, 02:53:00,VALID,916.422,VALID,0,VALID,100,VALID,0.135847,VALID,19.214,VALID,19,VALID,0.871094,
2006-01-22, 02:54:00,VALID,916.425,VALID,0,VALID,100,VALID,0.152827,VALID,19.201,VALID,21,VALID,1.02308,
2006-01-22, 02:55:00,VALID,916.423,VALID,0,VALID,100,VALID,0.135847,VALID,19.1951,VALID,8,VALID,1.06305,
2006-01-22, 02:56:00,VALID,916.413,VALID,0,VALID,100,VALID,0.135847,VALID,19.1595,VALID,10,VALID,1.23401,
2006-01-22, 02:57:00,VALID,916.415,VALID,0,VALID,100,VALID,0.169808,VALID,19.1108,VALID,12,VALID,1.17324,
2006-01-22, 02:58:00,VALID,916.408,VALID,0,VALID,100,VALID,0.118866,VALID,19.075,VALID,9,VALID,1.20099,
2006-01-22, 02:59:00,VALID,916.402,VALID,0,VALID,100,VALID,0.135847,VALID,19.0426,VALID,339,VALID,0.841751,
2006-01-22, 03:00:00,VALID,916.383,VALID,0,VALID,100,VALID,0.169808,VALID,19.0262,VALID,1,VALID,0.960211,
2006-01-22, 03:01:00,VALID,916.366,VALID,0,VALID,100,VALID,0.169808,VALID,19.0327,VALID,11,VALID,0.637195,
2006-01-22, 03:02:00,VALID,916.364,VALID,0,VALID,100,VALID,0.169808,VALID,19.0329,VALID,15,VALID,0.816406,
2006-01-22, 03:03:00,VALID,916.365,VALID,0,VALID,100,VALID,0.152827,VALID,19.0269,VALID,357,VALID,0.578683,
2006-01-22, 03:04:00,VALID,916.34,VALID,0,VALID,100,VALID,0.135847,VALID,19.0267,VALID,13,VALID,0.771439,
2006-01-22, 03:05:00,VALID,916.333,VALID,0,VALID,100,VALID,0.101885,VALID,19.0205,VALID,1,VALID,0.93843,
2006-01-22, 03:06:00,VALID,916.325,VALID,0,VALID,100,VALID,0.118866,VALID,19.0076,VALID,16,VALID,0.800071,
2006-01-22, 03:07:00,VALID,916.315,VALID,0,VALID,100,VALID,0.152827,VALID,18.9782,VALID,346,VALID,0.966264,
2006-01-22, 03:08:00,VALID,916.312,VALID,0,VALID,100,VALID,0.135847,VALID,18.9688,VALID,345,VALID,0.856889,
2006-01-22, 03:09:00,VALID,916.296,VALID,0,VALID,100,VALID,0.152827,VALID,18.9822,VALID,357,VALID,0.852471,
2006-01-22, 03:10:00,VALID,916.288,VALID,0,VALID,100,VALID,0.118866,VALID,19.0013,VALID,13,VALID,0.661272,
2006-01-22, 03:11:00,VALID,916.275,VALID,0,VALID,100,VALID,0.186789,VALID,18.9882,VALID,23,VALID,0.888393,
2006-01-22, 03:12:00,VALID,916.271,VALID,0,VALID,100,VALID,0.20377,VALID,18.9787,VALID,38,VALID,1.39286,
2006-01-22, 03:13:00,VALID,916.301,VALID,0,VALID,100,VALID,0.135847,VALID,18.9919,VALID,24,VALID,0.984012,
2006-01-22, 03:14:00,VALID,916.322,VALID,0,VALID,100,VALID,0.186789,VALID,19.014,VALID,21,VALID,0.741992,
2006-01-22, 03:15:00,VALID,916.313,VALID,0,VALID,100,VALID,0.152827,VALID,19.0207,VALID,11,VALID,0.968387,
2006-01-22, 03:16:00,VALID,916.289,VALID,0,VALID,100,VALID,0.169808,VALID,18.9782,VALID,17,VALID,0.821584,
2006-01-22, 03:17:00,VALID,916.281,VALID,0,VALID,100,VALID,0.237732,VALID,18.9722,VALID,357,VALID,0.966751,
2006-01-22, 03:18:00,VALID,916.28,VALID,0,VALID,100,VALID,0.169808,VALID,18.9464,VALID,347,VALID,0.652249,
2006-01-22, 03:19:00,VALID,916.249,VALID,0,VALID,100,VALID,0.186789,VALID,18.9464,VALID,32,VALID,0.61109,
2006-01-22, 03:20:00,VALID,916.242,VALID,0,VALID,100,VALID,0.186789,VALID,18.969,VALID,16,VALID,0.849746,
2006-01-22, 03:21:00,VALID,916.234,VALID,0,VALID,100,VALID,0.152827,VALID,18.9434,VALID,30,VALID,0.736632,
2006-01-22, 03:22:00,VALID,916.219,VALID,0,VALID,100,VALID,0.118866,VALID,18.9175,VALID,6,VALID,0.834695,
2006-01-22, 03:23:00,VALID,916.232,VALID,0,VALID,100,VALID,0.152827,VALID,18.9175,VALID,358,VALID,1.06577,
2006-01-22, 03:24:00,VALID,916.239,VALID,0,VALID,100,VALID,0.169808,VALID,18.9173,VALID,5,VALID,1.05469,
2006-01-22, 03:25:00,VALID,916.245,VALID,0,VALID,100,VALID,0.135847,VALID,18.9043,VALID,21,VALID,1.24165,
2006-01-22, 03:26:00,VALID,916.252,VALID,0,VALID,100,VALID,0.135847,VALID,18.9434,VALID,21,VALID,0.992969,
2006-01-22, 03:27:00,VALID,916.262,VALID,0,VALID,100,VALID,0.220751,VALID,18.9563,VALID,7,VALID,0.972929,
2006-01-22, 03:28:00,VALID,916.268,VALID,0,VALID,100,VALID,0.169808,VALID,18.9755,VALID,344,VALID,0.490734,
2006-01-22, 03:29:00,VALID,916.26,VALID,0,VALID,100,VALID,0.20377,VALID,18.9718,VALID,342,VALID,0.454578,
2006-01-22, 03:30:00,VALID,916.26,VALID,0,VALID,100,VALID,0.118866,VALID,18.9916,VALID,351,VALID,0.322656,
2006-01-22, 03:31:00,VALID,916.258,VALID,0,VALID,100,VALID,0.186789,VALID,18.9953,VALID,310,VALID,0.726385,
2006-01-22, 03:32:00,VALID,916.255,VALID,0,VALID,100,VALID,0.152827,VALID,18.9692,VALID,357,VALID,0.841087,
2006-01-22, 03:33:00,VALID,916.262,VALID,0,VALID,100,VALID,0.169808,VALID,18.9526,VALID,12,VALID,0.995028,
2006-01-22, 03:34:00,VALID,916.259,VALID,0,VALID,100,VALID,0.169808,VALID,18.9593,VALID,2,VALID,1.02176,
2006-01-22, 03:35:00,VALID,916.262,VALID,0,VALID,100,VALID,0.186789,VALID,18.9556,VALID,8,VALID,0.768293,
2006-01-22, 03:36:00,VALID,916.259,VALID,0,VALID,100,VALID,0.152827,VALID,18.9625,VALID,11,VALID,0.509301,
2006-01-22, 03:37:00,VALID,916.251,VALID,0,VALID,100,VALID,0.152827,VALID,18.9558,VALID,352,VALID,0.68285,
2006-01-22, 03:38:00,VALID,916.259,VALID,0,VALID,100,VALID,0.135847,VALID,18.9496,VALID,351,VALID,0.69494,
2006-01-22, 03:39:00,VALID,916.268,VALID,0,VALID,100,VALID,0.152827,VALID,18.9429,VALID,331,VALID,0.584077,
2006-01-22, 03:40:00,VALID,916.27,VALID,0,VALID,100,VALID,0.152827,VALID,18.9302,VALID,330,VALID,0.263579,
2006-01-22, 03:41:00,VALID,916.277,VALID,0,VALID,100,VALID,0.152827,VALID,18.9459,VALID,2,VALID,0.894055,
2006-01-22, 03:42:00,VALID,916.287,VALID,0,VALID,100,VALID,0.152827,VALID,18.9658,VALID,349,VALID,0.611979,
2006-01-22, 03:43:00,VALID,916.274,VALID,0,VALID,100,VALID,0.118866,VALID,18.969,VALID,23,VALID,0.686979,